Location: Gandikunta
(16.3784°N, 80.8378°E)
Time: 00:54:46
(UTC+00:00)

Cosmos 1758 Rocket - Pass Details

Date: 19 May 2025
Orbit: 596 x 629 km, 82.5° (Epoch: 18 June)

Event Time Altitude Azimuth Distance (km) Brightness Sun altitude
Rises 14:08:20 0° 2° (N) 2,830 7.3 -15.5°
Reaches altitude 10° 14:10:35 10° 7° (N) 1,930 6.3 -16.0°
Maximum altitude 14:14:45 54° 85° (E) 727 3.6 -16.9°
Enters shadow 14:16:38 30° 148° (SSE) 1,089 4.3 -17.3°
